Previsão horária em Abdul-Gazy

Hoje, 22 Janeiro, Sexta-feira

Tempo Temperatura Precipitação Vento Pressão Humidade
00:00 -6°C° 0 mm 3 m/s 770 mmHg 75%
01:00 -6°C° 0 mm 3 m/s 770 mmHg 73%
02:00 -6°C° 0 mm 3 m/s 769 mmHg 71%
03:00 -5°C° 0 mm 3 m/s 769 mmHg 68%
04:00 -5°C° 0 mm 3 m/s 769 mmHg 67%
05:00 -4°C° 0 mm 3 m/s 769 mmHg 66%
06:00 -4°C° 0 mm 3 m/s 769 mmHg 64%
07:00 -4°C° 0 mm 3 m/s 769 mmHg 63%
08:00 -2°C° 0 mm 3 m/s 769 mmHg 61%
09:00 -2°C° 0 mm 3 m/s 769 mmHg 59%
10:00 0°C° 0 mm 3 m/s 769 mmHg 55%
11:00 +1°C° 0 mm 3 m/s 769 mmHg 51%
12:00 +3°C° 0 mm 3 m/s 769 mmHg 47%
13:00 +4°C° 0 mm 2 m/s 768 mmHg 49%
14:00 +4°C° 0 mm 2 m/s 768 mmHg 51%
15:00 +6°C° 0 mm 1 m/s 767 mmHg 53%
16:00 +4°C° 0 mm 1 m/s 768 mmHg 57%
17:00 +3°C° 0 mm 1 m/s 768 mmHg 61%
18:00 +1°C° 0 mm 1 m/s 768 mmHg 65%
19:00 +1°C° 0 mm 1 m/s 768 mmHg 62%
20:00 +1°C° 0 mm 1 m/s 768 mmHg 59%
21:00 -1°C° 0 mm 2 m/s 768 mmHg 56%
22:00 -1°C° 0 mm 2 m/s 768 mmHg 58%
23:00 -1°C° 0 mm 2 m/s 768 mmHg 59%

Amanhã, 23 Janeiro, Sábado

Tempo Temperatura Precipitação Vento Pressão Humidade
00:00 -1°C° 0 mm 2 m/s 768 mmHg 61%
01:00 -1°C° 0 mm 2 m/s 767 mmHg 64%
02:00 +1°C° 0 mm 1 m/s 767 mmHg 67%
03:00 +1°C° 0 mm 1 m/s 767 mmHg 70%
04:00 +1°C° 0 mm 1 m/s 767 mmHg 71%
05:00 -1°C° 0 mm 2 m/s 767 mmHg 71%
06:00 -1°C° 0 mm 2 m/s 767 mmHg 72%
07:00 -1°C° 0 mm 2 m/s 767 mmHg 69%
08:00 +1°C° 0 mm 2 m/s 767 mmHg 66%
09:00 +2°C° 0 mm 2 m/s 767 mmHg 64%
10:00 +2°C° 0 mm 3 m/s 767 mmHg 60%
11:00 +3°C° 0 mm 4 m/s 767 mmHg 57%
12:00 +4°C° 0 mm 4 m/s 767 mmHg 54%
13:00 +4°C° 0 mm 4 m/s 766 mmHg 57%
14:00 +5°C° 0 mm 3 m/s 766 mmHg 60%
15:00 +5°C° 0 mm 3 m/s 766 mmHg 63%
16:00 +3°C° 0 mm 3 m/s 766 mmHg 69%
17:00 +2°C° 0 mm 3 m/s 766 mmHg 76%
18:00 -1°C° 0 mm 4 m/s 766 mmHg 83%
19:00 0°C° 0 mm 3 m/s 766 mmHg 85%
20:00 -1°C° 0 mm 3 m/s 766 mmHg 87%
21:00 -1°C° 0 mm 3 m/s 766 mmHg 89%
22:00 -1°C° 0 mm 3 m/s 766 mmHg 90%
23:00 -1°C° 0 mm 3 m/s 765 mmHg 91%

Depois de amanhã, 24 Janeiro, Domingo

Tempo Temperatura Precipitação Vento Pressão Humidade
00:00 -1°C° 0 mm 2 m/s 765 mmHg 92%
01:00 -2°C° 0 mm 2 m/s 765 mmHg 93%
02:00 -2°C° 0 mm 2 m/s 765 mmHg 93%
03:00 -2°C° 0 mm 2 m/s 764 mmHg 94%
04:00 -2°C° 0 mm 2 m/s 764 mmHg 95%
05:00 -2°C° 0 mm 2 m/s 764 mmHg 96%
06:00 -2°C° 0 mm 2 m/s 764 mmHg 96%
07:00 0°C° 0 mm 1 m/s 764 mmHg 96%
08:00 +1°C° 0 mm 1 m/s 764 mmHg 95%
09:00 +2°C° 0 mm 1 m/s 764 mmHg 95%
10:00 +2°C° 0 mm 1 m/s 763 mmHg 94%
11:00 +2°C° 0 mm 1 m/s 763 mmHg 93%
12:00 +2°C° 0 mm 1 m/s 763 mmHg 92%
13:00 +2°C° 0 mm 1 m/s 762 mmHg 90%
14:00 +2°C° 0 mm 1 m/s 762 mmHg 89%
15:00 +1°C° 0 mm 2 m/s 762 mmHg 88%
16:00 +2°C° 0 mm 1 m/s 762 mmHg 89%
17:00 +1°C° 0 mm 1 m/s 762 mmHg 91%
18:00 -1°C° 0 mm 0 m/s 762 mmHg 93%
19:00 0°C° 0 mm 1 m/s 762 mmHg 92%
20:00 0°C° 0 mm 1 m/s 762 mmHg 92%
21:00 -2°C° 0 mm 2 m/s 762 mmHg 91%
22:00 -1°C° 0 mm 2 m/s 762 mmHg 91%
23:00 -1°C° 0 mm 2 m/s 762 mmHg 91%

25 Janeiro, Segunda-feira

Tempo Temperatura Precipitação Vento Pressão Humidade
00:00 -1°C° 0 mm 2 m/s 761 mmHg 91%
01:00 -1°C° 0 mm 2 m/s 761 mmHg 92%
02:00 -1°C° 0 mm 2 m/s 761 mmHg 92%
03:00 +1°C° 0 mm 1 m/s 761 mmHg 93%
04:00 +1°C° 0 mm 1 m/s 761 mmHg 93%
05:00 0°C° 0 mm 1 m/s 761 mmHg 93%
06:00 0°C° 0 mm 1 m/s 761 mmHg 94%
07:00 +1°C° 0 mm 1 m/s 761 mmHg 91%
08:00 +2°C° 0 mm 1 m/s 762 mmHg 88%
09:00 +3°C° 0 mm 1 m/s 762 mmHg 85%
10:00 +4°C° 0 mm 1 m/s 762 mmHg 79%
11:00 +4°C° 0 mm 2 m/s 761 mmHg 73%
12:00 +4°C° 0 mm 2 m/s 761 mmHg 67%
13:00 +4°C° 0 mm 2 m/s 761 mmHg 68%
14:00 +6°C° 0 mm 1 m/s 761 mmHg 70%
15:00 +6°C° 0 mm 1 m/s 760 mmHg 71%
16:00 +4°C° 0 mm 2 m/s 760 mmHg 77%
17:00 +3°C° 0 mm 2 m/s 760 mmHg 82%
18:00 +1°C° 0 mm 3 m/s 760 mmHg 88%
19:00 +1°C° 0 mm 3 m/s 760 mmHg 89%
20:00 0°C° 0 mm 3 m/s 760 mmHg 91%
21:00 0°C° 0 mm 3 m/s 760 mmHg 93%
22:00 0°C° 0 mm 3 m/s 760 mmHg 94%
23:00 +1°C° 0 mm 2 m/s 760 mmHg 94%

26 Janeiro, Terça-feira

Tempo Temperatura Precipitação Vento Pressão Humidade
00:00 +1°C° 0 mm 2 m/s 759 mmHg 95%
01:00 +1°C° 0 mm 2 m/s 759 mmHg 96%
02:00 +1°C° 0 mm 1 m/s 760 mmHg 96%
03:00 +1°C° 0 mm 1 m/s 760 mmHg 97%
04:00 +1°C° 0 mm 1 m/s 760 mmHg 97%
05:00 +1°C° 0 mm 1 m/s 760 mmHg 97%
06:00 +1°C° 0 mm 1 m/s 760 mmHg 96%
07:00 +1°C° 0 mm 1 m/s 760 mmHg 94%
08:00 +2°C° 0 mm 1 m/s 760 mmHg 93%
09:00 +3°C° 0 mm 1 m/s 760 mmHg 91%
10:00 +3°C° 0 mm 2 m/s 760 mmHg 85%
11:00 +4°C° 0 mm 2 m/s 759 mmHg 79%
12:00 +6°C° 0 mm 2 m/s 759 mmHg 74%
13:00 +6°C° 0 mm 2 m/s 759 mmHg 73%
14:00 +6°C° 0 mm 2 m/s 759 mmHg 72%
15:00 +5°C° 0 mm 3 m/s 758 mmHg 71%
16:00 +5°C° 0 mm 2 m/s 759 mmHg 75%
17:00 +4°C° 0 mm 2 m/s 759 mmHg 80%
18:00 +3°C° 0 mm 2 m/s 759 mmHg 85%
19:00 +3°C° 0 mm 2 m/s 759 mmHg 87%
20:00 +2°C° 0 mm 3 m/s 759 mmHg 89%
21:00 +2°C° 0 mm 3 m/s 759 mmHg 91%
22:00 +1°C° 0 mm 3 m/s 759 mmHg 92%
23:00 +2°C° 0 mm 2 m/s 760 mmHg 94%

27 Janeiro, Quarta-feira

Tempo Temperatura Precipitação Vento Pressão Humidade
00:00 +2°C° 0 mm 2 m/s 760 mmHg 95%
01:00 +2°C° 0 mm 2 m/s 760 mmHg 96%
02:00 +1°C° 0 mm 2 m/s 760 mmHg 96%
03:00 +1°C° 0 mm 2 m/s 760 mmHg 96%
04:00 +1°C° 0 mm 2 m/s 759 mmHg 96%
05:00 +1°C° 0 mm 2 m/s 759 mmHg 96%
06:00 +1°C° 0 mm 2 m/s 759 mmHg 96%
07:00 +2°C° 0 mm 2 m/s 759 mmHg 94%
08:00 +3°C° 0 mm 1 m/s 758 mmHg 93%
09:00 +4°C° 0 mm 1 m/s 758 mmHg 91%
10:00 +3°C° 0 mm 2 m/s 757 mmHg 89%
11:00 +4°C° 0 mm 2 m/s 757 mmHg 86%
12:00 +5°C° 0 mm 2 m/s 756 mmHg 84%
13:00 +5°C° 0 mm 2 m/s 756 mmHg 83%
14:00 +5°C° 0 mm 2 m/s 755 mmHg 82%
15:00 +5°C° 0 mm 2 m/s 755 mmHg 81%
16:00 +5°C° 0 mm 2 m/s 755 mmHg 84%
17:00 +5°C° 0 mm 1 m/s 754 mmHg 86%
18:00 +5°C° 0 mm 1 m/s 754 mmHg 89%
19:00 +4°C° 0 mm 1 m/s 754 mmHg 90%
20:00 +4°C° 0 mm 1 m/s 754 mmHg 91%
21:00 +4°C° 0 mm 1 m/s 753 mmHg 93%
22:00 +4°C° 0 mm 1 m/s 753 mmHg 94%
23:00 +4°C° 0 mm 1 m/s 752 mmHg 94%
Mostrar mais